[[{"header":{"parameterUnit":"m.s-1","parameterCategory":1,"la1":30.2991,"la2":30.254,"lo1":-89.0895,"lo2":-89.0444,"dy":0.0017,"dx":0.0017,"nx":28,"ny":28,"refTime":"2025-03-25T03:00:00:Z","depth":0,"parameterNumber":2,"parameterNumberName":"U-component_of_WINDS"},"data":[0,0,0,0,0,0,0,0,0,0,0,0,0,0,0,0,0,0,0,0,0,0,0,0,0,0,0,0,0,0,0,0,0,0,0,0,0,0,0,0,0,0,0,0,0,0,0,0,0,0,0,0,0,0,0,0,0,0,-0.2224,-0.2224,0,-0.2188,-0.2188,-0.2188,-0.2168,-0.2167,-0.2167,-0.2167,-0.213,-0.2129,-0.2128,0,0,0,0,0,0,0,0,0,0,0,0,0,-0.2275,-0.2274,-0.2224,-0.2224,-0.2224,-0.2188,-0.2188,-0.2187,-0.2168,-0.2167,-0.2167,-0.2167,-0.213,-0.2129,-0.2128,0,0,0,0,0,0,0,0,0,0,0,0,0,-0.2248,-0.2274,-0.2225,-0.2209,-0.2208,-0.2189,-0.2188,-0.2187,-0.2168,-0.2167,-0.2167,-0.2167,-0.2131,-0.2129,-0.2128,-0.2121,0,0,-0.2124,-0.2123,0,0,0,0,0,0,0,0,-0.2249,-0.2246,-0.2212,-0.221,-0.2208,-0.2182,-0.2192,-0.2165,-0.2168,-0.2183,-0.2167,-0.2167,-0.2148,-0.2145,-0.2138,-0.2119,-0.2118,-0.2124,-0.2123,-0.2122,-0.2122,0,0,0,0,0,0,0,-0.2251,-0.2247,-0.221,-0.2212,-0.2209,-0.2204,-0.22,-0.2187,-0.2166,-0.2181,-0.218,-0.2176,-0.2147,-0.214,-0.2137,-0.2117,-0.2124,-0.2122,-0.2122,-0.2121,-0.209,-0.209,0,0,0,0,0,0,-0.2256,-0.2249,-0.2211,-0.2209,-0.2229,-0.2203,-0.2199,-0.2191,-0.2166,-0.2162,-0.2176,-0.2175,-0.2142,-0.2139,-0.2136,-0.2125,-0.2122,-0.2121,-0.212,-0.209,-0.209,-0.209,0,0,0,0,0,0,-0.2257,-0.2252,-0.2213,-0.2229,-0.2223,-0.2202,-0.2194,-0.219,-0.2183,-0.2162,-0.2158,-0.2173,-0.2142,-0.2138,-0.2125,-0.2124,-0.212,-0.2119,-0.209,-0.209,-0.209,-0.2105,0,0,0,0,0,0,-0.2258,-0.2253,-0.225,-0.2229,-0.2222,-0.2203,-0.2194,-0.219,-0.2181,-0.2179,-0.2158,-0.2154,-0.2141,-0.2127,-0.2123,-0.2122,-0.2118,-0.209,-0.209,-0.209,-0.2104,-0.2106,-0.2106,0,0,0,0,0,-0.226,-0.2256,-0.225,-0.2246,-0.2219,-0.2203,-0.2199,-0.2184,-0.2181,-0.2178,-0.2164,-0.2155,-0.2125,-0.2126,-0.2122,-0.212,-0.209,-0.209,-0.209,-0.2104,-0.2105,-0.2106,0,0,0,0,0,0,-0.2279,-0.2253,-0.2246,-0.2235,-0.2221,-0.2199,-0.2195,-0.2186,-0.2173,-0.2172,-0.2154,-0.2149,-0.2138,-0.2127,-0.2129,-0.2111,-0.2106,-0.2105,-0.2118,-0.2119,-0.212,-0.2123,-0.2117,0,0,0,0,0,-0.2281,-0.2271,-0.2249,-0.2241,-0.2234,-0.2216,-0.2209,-0.2198,-0.2183,-0.2177,-0.2162,-0.2148,-0.2135,-0.2126,-0.2113,-0.2103,-0.2097,-0.2099,-0.21,-0.2101,-0.2101,-0.2093,-0.2094,-0.209,-0.209,-0.209,0,0,-0.2287,-0.2272,-0.2266,-0.2244,-0.2232,-0.2221,-0.2211,-0.22,-0.2192,-0.2175,-0.2162,-0.2151,-0.2133,-0.2121,-0.2115,-0.2112,-0.2101,-0.2101,-0.2102,-0.2101,-0.2094,-0.2094,-0.2094,-0.209,-0.209,-0.209,0,0,-0.2291,-0.2279,-0.2271,-0.2259,-0.2241,-0.2228,-0.2226,-0.2205,-0.2197,-0.2184,-0.2171,-0.216,-0.2138,-0.2126,-0.2117,-0.2116,-0.2107,-0.2112,-0.2117,-0.211,-0.2111,-0.2111,-0.211,-0.211,-0.2112,-0.2112,-0.2112,0,-0.2301,-0.2284,-0.2268,-0.2257,-0.2248,-0.2232,-0.2224,-0.2213,-0.2191,-0.2185,-0.2182,-0.2153,-0.214,-0.2125,-0.2125,-0.2118,-0.2115,-0.2114,-0.2112,-0.2112,-0.2112,-0.2111,-0.2111,-0.2112,-0.2112,-0.2112,-0.2112,0,-0.2296,-0.2284,-0.228,-0.2259,-0.2249,-0.2239,-0.2222,-0.2214,-0.2204,-0.2192,-0.2178,-0.2161,-0.2144,-0.214,-0.2131,-0.2123,-0.2121,-0.2115,-0.211,-0.2113,-0.2112,-0.2111,-0.2113,-0.2113,-0.2113,-0.2113,0,0,-0.2311,-0.2281,-0.228,-0.227,-0.2248,-0.2239,-0.2228,-0.2212,-0.2205,-0.219,-0.218,-0.2162,-0.2156,-0.2145,-0.2134,-0.2128,-0.2128,-0.2123,-0.2122,-0.2124,-0.2117,-0.2122,-0.2122,-0.2122,-0.2121,-0.2121,-0.2119,0,-0.2312,-0.2293,-0.2278,-0.2264,-0.2252,-0.2237,-0.2228,-0.2213,-0.2201,-0.219,-0.2176,-0.2163,-0.2157,-0.215,-0.2144,-0.2129,-0.2126,-0.2129,-0.2112,-0.2112,-0.2117,-0.2121,-0.2126,-0.2125,-0.2118,-0.2118,-0.2118,0,-0.2311,-0.2297,-0.2282,-0.226,-0.2255,-0.2247,-0.223,-0.2219,-0.2202,-0.2194,-0.2182,-0.217,-0.2158,-0.2154,-0.2136,-0.2138,-0.213,-0.2122,-0.2121,-0.2119,-0.2115,-0.2119,-0.2124,-0.2123,-0.2117,-0.2117,-0.2117,0,-0.2323,-0.23,-0.2288,-0.228,-0.2255,-0.225,-0.2239,-0.2222,-0.2212,-0.2197,-0.2191,-0.2175,-0.2166,-0.2153,-0.2138,-0.2136,-0.2121,-0.2116,-0.2114,-0.2114,-0.2111,-0.2112,-0.2115,-0.2107,-0.2107,-0.2107,-0.2107,0,-0.2326,-0.2317,-0.2293,-0.2285,-0.2275,-0.2257,-0.2247,-0.2235,-0.222,-0.2209,-0.2195,-0.2186,-0.2165,-0.2153,-0.2141,-0.2127,-0.2124,-0.2116,-0.2113,-0.2117,-0.2118,-0.2112,-0.2111,-0.2106,-0.2106,-0.2106,-0.2106,0,-0.2338,-0.2321,-0.2307,-0.2284,-0.2278,-0.2271,-0.2252,-0.2244,-0.2231,-0.2218,-0.2213,-0.2193,-0.2178,-0.2161,-0.214,-0.2131,-0.2119,-0.2114,-0.2125,-0.2123,-0.2121,-0.2122,-0.212,-0.2119,-0.2112,-0.2112,-0.2112,0,-0.2341,-0.2333,-0.231,-0.2302,-0.2291,-0.2279,-0.2269,-0.2251,-0.2242,-0.2221,-0.2215,-0.2199,-0.2185,-0.2161,-0.2144,-0.2128,-0.2123,-0.2123,-0.212,-0.2125,-0.2122,-0.2123,-0.2122,-0.2124,-0.2124,-0.2125,-0.2125,0,-0.2347,-0.2339,-0.2326,-0.2309,-0.2298,-0.2284,-0.2269,-0.2264,-0.2243,-0.2233,-0.2217,-0.2206,-0.2184,-0.2168,-0.215,-0.2138,-0.2128,-0.2126,-0.2124,-0.2129,-0.2135,-0.2131,-0.2127,-0.2126,-0.2126,-0.2126,-0.2126,-0.2126,-0.2354,-0.2347,-0.2329,-0.2314,-0.2301,-0.2288,-0.2279,-0.2265,-0.2251,-0.2232,-0.2222,-0.2207,-0.2189,-0.2163,-0.2152,-0.2139,-0.2135,-0.2133,-0.2133,-0.2132,-0.2133,-0.2137,-0.2135,-0.2135,-0.2135,-0.2135,-0.2135,0,-0.2359,-0.2347,-0.2333,-0.2313,-0.2302,-0.2293,-0.2276,-0.2267,-0.2253,-0.2238,-0.2224,-0.2205,-0.2189,-0.2171,-0.2153,-0.2147,-0.2141,-0.2143,-0.2143,-0.214,-0.2138,-0.214,-0.2147,-0.2147,-0.2147,-0.2147,-0.2147,-0.2147,-0.2361,-0.2347,-0.2337,-0.2317,-0.2305,-0.2289,-0.228,-0.2268,-0.2255,-0.2235,-0.2221,-0.2209,-0.2192,-0.2174,-0.2158,-0.2153,-0.2147,-0.215,-0.2143,-0.2141,-0.214,-0.2139,-0.2142,-0.2149,-0.2149,-0.2147,-0.2147,-0.2147]},{"header":{"parameterUnit":"m.s-1","parameterCategory":1,"la1":30.2991,"la2":30.254,"lo1":-89.0895,"lo2":-89.0444,"dy":0.0017,"dx":0.0017,"nx":28,"ny":28,"refTime":"2025-03-25T03:00:00:Z","depth":0,"parameterNumber":3,"parameterNumberName":"V-component_of_WINDS"},"data":[0,0,0,0,0,0,0,0,0,0,0,0,0,0,0,0,0,0,0,0,0,0,0,0,0,0,0,0,0,0,0,0,0,0,0,0,0,0,0,0,0,0,0,0,0,0,0,0,0,0,0,0,0,0,0,0,0,0,-0.6804,-0.6804,0,-0.6802,-0.6802,-0.6802,-0.681,-0.681,-0.681,-0.6811,-0.6808,-0.6808,-0.6808,0,0,0,0,0,0,0,0,0,0,0,0,0,-0.6813,-0.6813,-0.6804,-0.6804,-0.6804,-0.6802,-0.6802,-0.6802,-0.681,-0.681,-0.681,-0.6811,-0.6808,-0.6808,-0.6808,0,0,0,0,0,0,0,0,0,0,0,0,0,-0.681,-0.6813,-0.6804,-0.6808,-0.6808,-0.6802,-0.6802,-0.6802,-0.681,-0.681,-0.681,-0.6811,-0.6808,-0.6808,-0.6808,-0.6798,0,0,-0.6806,-0.6806,0,0,0,0,0,0,0,0,-0.681,-0.681,-0.6807,-0.6807,-0.6808,-0.6807,-0.6805,-0.6801,-0.681,-0.6809,-0.6811,-0.6811,-0.6807,-0.6807,-0.6806,-0.6798,-0.6798,-0.6806,-0.6806,-0.6806,-0.6806,0,0,0,0,0,0,0,-0.681,-0.681,-0.6803,-0.6807,-0.6807,-0.6809,-0.6809,-0.6804,-0.6806,-0.6809,-0.681,-0.6809,-0.6808,-0.6806,-0.6806,-0.6798,-0.6806,-0.6806,-0.6806,-0.6805,-0.6783,-0.6783,0,0,0,0,0,0,-0.681,-0.681,-0.6803,-0.6803,-0.681,-0.6809,-0.6809,-0.6807,-0.6806,-0.6807,-0.6809,-0.681,-0.6807,-0.6806,-0.6806,-0.6795,-0.6806,-0.6805,-0.6805,-0.6784,-0.6783,-0.6783,0,0,0,0,0,0,-0.681,-0.681,-0.6804,-0.6807,-0.6806,-0.6808,-0.6806,-0.6806,-0.6805,-0.6806,-0.6807,-0.6807,-0.6807,-0.6806,-0.68,-0.6795,-0.6805,-0.6805,-0.6784,-0.6784,-0.6783,-0.6774,0,0,0,0,0,0,-0.6811,-0.681,-0.6806,-0.6807,-0.6806,-0.6798,-0.6806,-0.6806,-0.6805,-0.6805,-0.6805,-0.6805,-0.6807,-0.6801,-0.68,-0.6795,-0.6805,-0.6785,-0.6784,-0.6783,-0.6775,-0.6773,-0.6772,0,0,0,0,0,-0.6811,-0.6804,-0.6806,-0.6805,-0.6802,-0.6798,-0.6797,-0.68,-0.6804,-0.6801,-0.6802,-0.6805,-0.6796,-0.68,-0.6799,-0.6794,-0.6785,-0.6784,-0.6783,-0.6775,-0.6774,-0.6772,0,0,0,0,0,0,-0.6802,-0.6804,-0.6806,-0.6799,-0.6798,-0.6799,-0.6795,-0.6798,-0.6796,-0.6797,-0.68,-0.68,-0.6793,-0.6793,-0.6797,-0.6785,-0.6791,-0.679,-0.6786,-0.6784,-0.6782,-0.6782,-0.6804,0,0,0,0,0,-0.6799,-0.6796,-0.6798,-0.6791,-0.679,-0.6793,-0.6791,-0.6793,-0.6792,-0.6792,-0.6792,-0.6791,-0.6788,-0.6786,-0.6783,-0.6775,-0.6775,-0.6771,-0.677,-0.6768,-0.6767,-0.6763,-0.6761,-0.678,-0.678,-0.678,0,0,-0.6793,-0.6794,-0.6791,-0.6789,-0.6789,-0.6785,-0.6792,-0.6788,-0.6785,-0.6791,-0.6786,-0.6786,-0.6785,-0.6778,-0.6775,-0.6777,-0.6762,-0.6767,-0.6766,-0.6766,-0.6762,-0.676,-0.6759,-0.678,-0.678,-0.678,0,0,-0.6781,-0.6781,-0.6775,-0.6775,-0.6774,-0.6776,-0.6775,-0.6775,-0.6776,-0.677,-0.6775,-0.6772,-0.6766,-0.6765,-0.6764,-0.6752,-0.6755,-0.6751,-0.6744,-0.6739,-0.6738,-0.6736,-0.6732,-0.673,-0.675,-0.675,-0.675,0,-0.6773,-0.6768,-0.6772,-0.6767,-0.6766,-0.6772,-0.6766,-0.6766,-0.6764,-0.6763,-0.6767,-0.6761,-0.676,-0.6753,-0.675,-0.6749,-0.6748,-0.6751,-0.6738,-0.6736,-0.6735,-0.6731,-0.6729,-0.675,-0.675,-0.675,-0.675,0,-0.6759,-0.6755,-0.6751,-0.675,-0.6748,-0.6743,-0.6746,-0.6744,-0.6747,-0.6748,-0.6742,-0.6742,-0.674,-0.6738,-0.6741,-0.6731,-0.6733,-0.6737,-0.6743,-0.6733,-0.6729,-0.6727,-0.6749,-0.6749,-0.6749,-0.6749,0,0,-0.674,-0.6741,-0.674,-0.6739,-0.674,-0.6737,-0.6732,-0.673,-0.6728,-0.6727,-0.6723,-0.6719,-0.6723,-0.6722,-0.6724,-0.672,-0.6711,-0.6725,-0.6725,-0.6722,-0.67,-0.6697,-0.6695,-0.6713,-0.6713,-0.6712,-0.67,0,-0.6727,-0.6719,-0.6723,-0.6715,-0.6712,-0.6717,-0.6713,-0.6713,-0.6714,-0.6712,-0.6713,-0.671,-0.6715,-0.6715,-0.6711,-0.6712,-0.6706,-0.6713,-0.6709,-0.6709,-0.6709,-0.6693,-0.669,-0.6678,-0.6699,-0.6699,-0.6698,0,-0.6711,-0.671,-0.6702,-0.6703,-0.6702,-0.6698,-0.6696,-0.6694,-0.6694,-0.6695,-0.6694,-0.6697,-0.6693,-0.6699,-0.6693,-0.6698,-0.6697,-0.6697,-0.6697,-0.6696,-0.6703,-0.6692,-0.6675,-0.6673,-0.6696,-0.6696,-0.6696,0,-0.6698,-0.6694,-0.6689,-0.6688,-0.669,-0.6687,-0.6687,-0.6688,-0.6686,-0.6685,-0.6684,-0.6682,-0.6681,-0.668,-0.6682,-0.6687,-0.6676,-0.6682,-0.6677,-0.6676,-0.6674,-0.6674,-0.6656,-0.6673,-0.6673,-0.6673,-0.6673,0,-0.6683,-0.6677,-0.6683,-0.6679,-0.6673,-0.6678,-0.6672,-0.6673,-0.6673,-0.667,-0.6675,-0.6672,-0.6676,-0.6673,-0.6676,-0.667,-0.667,-0.6671,-0.6671,-0.667,-0.667,-0.6669,-0.6669,-0.6673,-0.6673,-0.6673,-0.6673,0,-0.6667,-0.667,-0.6664,-0.6666,-0.6667,-0.6662,-0.6664,-0.6661,-0.6663,-0.6659,-0.6658,-0.6661,-0.6658,-0.6661,-0.6659,-0.666,-0.6653,-0.6655,-0.6653,-0.6653,-0.6647,-0.6648,-0.6627,-0.6625,-0.6645,-0.6644,-0.6644,0,-0.6657,-0.6653,-0.6655,-0.6653,-0.6653,-0.6651,-0.6649,-0.6654,-0.6652,-0.6652,-0.6649,-0.6647,-0.6645,-0.664,-0.6642,-0.664,-0.6642,-0.6635,-0.6642,-0.6641,-0.6642,-0.6642,-0.6641,-0.6634,-0.6633,-0.6633,-0.6633,0,-0.6639,-0.6641,-0.6639,-0.6638,-0.6636,-0.6636,-0.6635,-0.6634,-0.6638,-0.6636,-0.6634,-0.6632,-0.663,-0.6628,-0.6626,-0.6627,-0.663,-0.6631,-0.663,-0.6628,-0.6627,-0.6627,-0.6649,-0.6631,-0.6631,-0.6632,-0.6632,-0.6632,-0.6625,-0.6622,-0.6623,-0.6621,-0.6621,-0.6621,-0.6618,-0.662,-0.6618,-0.6617,-0.6619,-0.6616,-0.6616,-0.6615,-0.6615,-0.6613,-0.6616,-0.6613,-0.6613,-0.6612,-0.6611,-0.6628,-0.6612,-0.6612,-0.6613,-0.6613,-0.6613,0,-0.6607,-0.6609,-0.6607,-0.6606,-0.6605,-0.6609,-0.6609,-0.6607,-0.6604,-0.6605,-0.6603,-0.66,-0.6598,-0.66,-0.6598,-0.6596,-0.6598,-0.6595,-0.6595,-0.6595,-0.6609,-0.661,-0.6594,-0.6594,-0.6594,-0.6594,-0.6594,-0.6594,-0.6598,-0.6593,-0.6595,-0.659,-0.6591,-0.6588,-0.6588,-0.6588,-0.6588,-0.6585,-0.6583,-0.6585,-0.6586,-0.6584,-0.6582,-0.6583,-0.6582,-0.6579,-0.658,-0.6592,-0.6594,-0.6596,-0.6597,-0.6579,-0.6579,-0.6567,-0.6567,-0.6567]}]]